AC2EV Weather Reports


Display with metric or nautical units.
time (UTC)temp
F
wind
direction
speed
MPH
gust
MPH
rain 1hr
in
rain 24hr
in
rain mn
in
humidity
%
barometer
mb
20260906211803 70 46 0.0 0.0 0.00 0.11 0.11 68 1018.6
20260906211302 70 46 0.0 0.0 0.00 0.11 0.11 68 1018.7
20260906210803 70 46 0.0 0.0 0.00 0.11 0.11 67 1018.7
20260906210303 70 46 0.0 0.0 0.00 0.11 0.11 69 1018.7
20260906205803 70 46 0.0 0.0 0.00 0.11 0.11 68 1018.8
20260906205306 70 46 0.0 0.0 0.00 0.11 0.11 67 1018.7
20260906204803 70 46 0.0 0.0 0.00 0.11 0.11 69 1018.7
20260906204302 70 46 0.0 0.0 0.00 0.11 0.11 69 1018.7
20260906203803 70 46 0.0 0.0 0.00 0.11 0.11 69 1018.7
20260906203302 69 46 0.0 1.0 0.00 0.11 0.11 70 1018.6
20260906202803 69 46 0.0 1.0 0.00 0.11 0.11 70 1018.6
20260906202306 69 46 0.0 1.0 0.00 0.11 0.11 70 1018.6
20260906201803 69 46 0.0 1.0 0.00 0.11 0.11 70 1018.7
20260906201302 69 45 0.0 0.0 0.00 0.11 0.11 70 1018.6
20260906200803 69 45 0.0 0.0 0.00 0.11 0.11 70 1018.6
20260906200302 69 45 0.0 0.0 0.00 0.11 0.11 70 1018.7
20260906195803 69 45 0.0 0.0 0.00 0.11 0.11 71 1018.7
20260906195306 69 45 0.0 0.0 0.00 0.11 0.11 71 1018.7
20260906194803 69 45 0.0 0.0 0.00 0.11 0.11 73 1018.6
20260906194302 68 45 0.0 0.0 0.00 0.11 0.11 73 1018.7
20260906193803 68 45 0.0 0.0 0.00 0.11 0.11 72 1018.8
20260906193302 68 45 0.0 0.0 0.00 0.11 0.11 72 1018.9
20260906192803 68 46 0.0 0.0 0.00 0.11 0.11 73 1018.8
20260906192302 68 45 0.0 1.0 0.00 0.11 0.11 71 1018.8
20260906191803 68 45 0.0 1.0 0.00 0.11 0.11 72 1018.9
20260906191302 68 45 0.0 1.0 0.00 0.11 0.11 71 1018.9
20260906190803 68 45 0.0 1.0 0.00 0.11 0.11 71 1018.9
20260906190302 68 45 0.0 1.0 0.00 0.11 0.11 71 1018.8
20260906185803 68 45 0.0 1.0 0.00 0.11 0.11 71 1018.8
20260906185305 68 45 0.0 1.0 0.00 0.11 0.11 72 1018.8
20260906184803 68 45 0.0 1.0 0.00 0.11 0.11 73 1018.8
20260906184302 68 47 0.0 1.0 0.00 0.11 0.11 73 1018.9
20260906183801 68 46 0.0 1.0 0.00 0.11 0.11 72 1018.9
20260906183255 68 47 0.0 1.0 0.00 0.11 0.11 74 1018.9
20260906182755 67 47 0.0 4.0 0.00 0.11 0.11 75 1018.8
20260906182257 68 47 0.0 4.0 0.00 0.11 0.11 74 1018.9
20260906181755 68 46 0.0 2.0 0.00 0.11 0.11 73 1019.0
20260906181458 68 46 0.0 1.0 0.00 0.11 0.11 72 1018.9
20260906180753 69 46 0.0 1.0 0.00 0.11 0.11 72 1018.9
20260906180253 69 48 0.0 4.0 0.00 0.11 0.11 73 1018.8
20260906175752 68 48 0.0 4.0 0.00 0.11 0.11 74 1018.8
20260906175252 68 45 0.0 2.0 0.00 0.11 0.11 73 1018.9
20260906174750 67 45 0.0 2.0 0.00 0.11 0.11 75 1018.9
20260906174247 67 45 0.0 1.0 0.00 0.11 0.11 75 1018.9
20260906173747 67 44 0.0 1.0 0.00 0.11 0.11 74 1018.9
20260906173247 68 46 0.0 0.0 0.00 0.11 0.11 74 1019.0
20260906172745 68 46 0.0 1.0 0.00 0.11 0.11 75 1019.0
20260906172245 68 46 0.0 1.0 0.00 0.11 0.11 79 1019.0
20260906171746 67 46 0.0 0.0 0.00 0.11 0.11 76 1019.1
20260906171245 67 46 0.0 1.0 0.00 0.11 0.11 76 1019.1
20260906170744 67 46 0.0 1.0 0.00 0.11 0.11 77 1019.0
20260906170243 67 46 0.0 1.0 0.00 0.11 0.11 78 1019.0
20260906165742 67 46 0.0 1.0 0.00 0.11 0.11 77 1019.0
20260906165241 68 46 0.0 3.0 0.00 0.11 0.11 76 1018.9
20260906164741 68 45 0.0 3.0 0.00 0.11 0.11 75 1018.9
20260906164241 68 42 0.0 4.0 0.00 0.11 0.11 77 1018.8
20260906163742 68 42 0.0 4.0 0.00 0.11 0.11 75 1018.9
20260906163241 68 49 0.0 3.0 0.00 0.11 0.11 75 1018.8
20260906162741 67 50 0.0 3.0 0.00 0.11 0.11 79 1018.8
20260906162239 67 49 0.0 4.0 0.00 0.11 0.11 78 1018.9
20260906161737 67 49 0.0 4.0 0.00 0.11 0.11 77 1018.9
20260906161239 68 49 0.0 0.0 0.00 0.11 0.11 79 1018.9
20260906160737 67 49 0.0 1.0 0.00 0.11 0.11 79 1018.8
20260906160238 68 49 0.0 1.0 0.00 0.11 0.11 78 1018.9
20260906155737 68 51 0.0 0.0 0.00 0.11 0.11 78 1018.9
20260906155238 68 51 0.0 1.0 0.00 0.11 0.11 76 1018.9
20260906154737 68 51 0.0 1.0 0.00 0.11 0.11 74 1018.7
20260906154239 69 50 0.0 0.0 0.00 0.11 0.11 74 1018.8
20260906153731 68 51 0.0 0.0 0.00 0.11 0.11 77 1018.7
20260906153231 68 51 0.0 0.0 0.00 0.11 0.11 77 1018.7
20260906152732 67 50 0.0 0.0 0.11 0.11 0.11 77 1018.7
20260906152232 67 10 0.0 2.0 0.11 0.11 0.11 78 1018.7
20260906151732 67 51 0.0 2.0 0.11 0.11 0.11 78 1018.6
20260906151230 67 51 0.0 3.0 0.11 0.11 0.11 76 1018.6
20260906150731 68 49 0.0 3.0 0.11 0.11 0.11 77 1018.5
20260906150231 68 49 0.0 5.0 0.11 0.11 0.11 77 1018.5
20260906145729 68 50 0.0 5.0 0.11 0.11 0.11 78 1018.6
20260906145227 68 36 0.0 2.0 0.11 0.11 0.11 79 1018.6
20260906144727 67 34 0.0 2.0 0.11 0.11 0.11 80 1018.5
20260906144227 67 34 0.0 2.0 0.11 0.11 0.11 80 1018.5
20260906143725 67 34 0.0 3.0 0.11 0.11 0.11 80 1018.6
20260906143223 67 33 0.0 6.0 0.11 0.11 0.11 79 1018.5
20260906142721 67 26 0.0 6.0 0.00 0.00 0.00 79 1018.5
20260906142225 67 23 0.0 2.0 0.00 0.00 0.00 78 1018.5
20260906141715 67 23 0.0 4.0 0.00 0.00 0.00 80 1018.4
20260906141209 68 23 0.0 5.0 0.00 0.00 0.00 78 1018.4
20260906140709 68 13 0.0 5.0 0.00 0.00 0.00 78 1018.3
20260906140209 67 13 0.0 2.0 0.00 0.00 0.00 82 1018.2
20260906135709 67 0 0.0 1.0 0.00 0.00 0.00 81 1018.1
20260906135207 67 0 0.0 2.0 0.00 0.00 0.00 84 1017.9
20260906134707 66 0 0.0 2.0 0.00 0.00 0.00 83 1018.0
20260906134207 66 30 0.0 2.0 0.00 0.00 0.00 84 1018.0
20260906133703 66 34 0.0 3.0 0.00 0.00 0.00 84 1018.1
20260906133204 66 32 0.0 3.0 0.00 0.00 0.00 84 1018.0
20260906132703 66 31 0.0 1.0 0.00 0.00 0.00 84 1018.0
20260906132203 66 350 0.0 1.0 0.00 0.00 0.00 85 1017.9
20260906131703 66 351 0.0 1.0 0.00 0.00 0.00 84 1017.9
20260906131202 66 351 0.0 1.0 0.00 0.00 0.00 85 1017.9
20260906130703 66 351 0.0 6.0 0.00 0.00 0.00 86 1017.9
20260906130202 66 351 0.0 6.0 0.00 0.00 0.00 87 1017.9
20260906125703 66 327 0.0 1.0 0.00 0.00 0.00 87 1017.8
20260906125202 66 326 0.0 1.0 0.00 0.00 0.00 88 1017.7
20260906124703 66 326 0.0 0.0 0.00 0.00 0.00 89 1017.7
20260906124202 65 325 0.0 0.0 0.00 0.00 0.00 90 1017.6
20260906123702 65 325 0.0 1.0 0.00 0.00 0.00 90 1017.6
20260906123203 65 325 0.0 1.0 0.00 0.00 0.00 90 1017.6
20260906122702 65 325 0.0 3.0 0.00 0.00 0.00 90 1017.6
20260906122203 65 28 0.0 3.0 0.00 0.00 0.00 90 1017.5
20260906121702 64 24 0.0 4.0 0.00 0.00 0.00 88 1017.5
20260906121203 64 30 0.0 4.0 0.00 0.00 0.00 88 1017.5
20260906120702 64 302 0.0 1.0 0.00 0.00 0.00 87 1017.4
20260906120203 64 302 0.0 1.0 0.00 0.00 0.00 87 1017.3
20260906115702 63 300 0.0 0.0 0.00 0.00 0.00 87 1017.3
20260906115202 61 0 0.0 0.0 0.00 0.00 0.00 88 1017.1
20260906114702 61 0 0.0 0.0 0.00 0.00 0.00 89 1017.0
20260906114202 60 0 0.0 0.0 0.00 0.00 0.00 89 1016.9
20260906113702 60 0 0.0 0.0 0.00 0.00 0.00 89 1016.9
20260906113202 60 300 0.0 0.0 0.00 0.00 0.00 89 1016.9
20260906112702 60 301 0.0 0.0 0.00 0.00 0.00 89 1016.9
20260906112203 59 301 0.0 0.0 0.00 0.00 0.00 90 1016.8
20260906111702 59 301 0.0 0.0 0.00 0.00 0.00 90 1016.7
20260906111202 59 301 0.0 0.0 0.00 0.00 0.00 90 1016.7
20260906110703 59 293 0.0 0.0 0.00 0.00 0.00 90 1016.7
20260906110202 59 297 0.0 0.0 0.00 0.00 0.00 90 1016.6
20260906105202 59 300 0.0 0.0 0.00 0.00 0.00 90 1016.5
20260906104703 59 300 0.0 0.0 0.00 0.00 0.00 90 1016.4
20260906104203 59 300 0.0 0.0 0.00 0.00 0.00 90 1016.4
20260906103703 59 300 0.0 0.0 0.00 0.00 0.00 90 1016.4
20260906103202 59 301 0.0 0.0 0.00 0.00 0.00 90 1016.3
20260906102703 59 301 0.0 0.0 0.00 0.00 0.00 90 1016.2
20260906102202 59 301 0.0 0.0 0.00 0.00 0.00 90 1016.2
20260906101702 59 301 0.0 0.0 0.00 0.00 0.00 90 1016.1
20260906101202 59 301 0.0 0.0 0.00 0.00 0.00 90 1016.1
20260906100702 59 301 0.0 0.0 0.00 0.00 0.00 90 1016.0
20260906100203 59 301 0.0 0.0 0.00 0.00 0.00 90 1016.0
20260906095702 59 301 0.0 0.0 0.00 0.00 0.00 90 1015.9
20260906095203 59 301 0.0 0.0 0.00 0.00 0.00 90 1015.9
20260906094702 59 301 0.0 0.0 0.00 0.00 0.00 90 1015.8
20260906094203 59 301 0.0 0.0 0.00 0.00 0.00 90 1015.8
20260906093703 59 301 0.0 0.0 0.00 0.00 0.00 90 1015.7
20260906093202 59 301 0.0 0.0 0.00 0.00 0.00 90 1015.7
20260906092703 59 301 0.0 0.0 0.00 0.00 0.00 90 1015.7
20260906092202 59 301 0.0 0.0 0.00 0.00 0.00 90 1015.7
20260906091704 59 301 0.0 0.0 0.00 0.00 0.00 90 1015.5
20260906091203 59 301 0.0 0.0 0.00 0.00 0.00 90 1015.6
20260906090703 59 301 0.0 0.0 0.00 0.00 0.00 90 1015.5
20260906090202 59 301 0.0 0.0 0.00 0.00 0.00 90 1015.5
20260906085704 59 301 0.0 0.0 0.00 0.00 0.00 90 1015.4
20260906085202 60 301 0.0 0.0 0.00 0.00 0.00 90 1015.3
20260906084702 60 301 0.0 0.0 0.00 0.00 0.00 90 1015.2
20260906084203 60 301 0.0 0.0 0.00 0.00 0.00 90 1015.1
20260906083703 60 296 0.0 0.0 0.00 0.00 0.00 90 1015.1
20260906083202 60 297 0.0 0.0 0.00 0.00 0.00 90 1015.0
20260906082702 60 299 0.0 0.0 0.00 0.00 0.00 91 1015.0
20260906082202 60 300 0.0 0.0 0.00 0.00 0.00 91 1015.0
20260906081702 60 300 0.0 0.0 0.00 0.00 0.00 91 1015.0
20260906081203 60 301 0.0 0.0 0.00 0.00 0.00 91 1015.0
20260906080703 60 301 0.0 0.0 0.00 0.00 0.00 90 1015.0
20260906080202 60 301 0.0 0.0 0.00 0.00 0.00 90 1015.0
20260906075702 60 301 0.0 0.0 0.00 0.00 0.00 90 1015.0
20260906075202 60 301 0.0 0.0 0.00 0.00 0.00 90 1015.0
20260906074703 61 0 0.0 0.0 0.00 0.00 0.00 91 1015.0
20260906074202 61 0 0.0 0.0 0.00 0.00 0.00 91 1014.9
20260906073703 61 0 0.0 0.0 0.00 0.00 0.00 91 1014.9
20260906073202 61 0 0.0 0.0 0.00 0.00 0.00 90 1014.9
20260906072703 61 0 0.0 0.0 0.00 0.00 0.00 90 1014.7
20260906072202 61 0 0.0 0.0 0.00 0.00 0.00 90 1014.7
20260906071702 61 0 0.0 0.0 0.00 0.00 0.00 91 1014.8
20260906071202 61 0 0.0 0.0 0.00 0.00 0.00 91 1014.8
20260906070703 62 0 0.0 0.0 0.00 0.00 0.00 90 1014.9
20260906070202 62 0 0.0 0.0 0.00 0.00 0.00 90 1014.8
20260906065702 62 0 0.0 0.0 0.00 0.00 0.00 90 1014.8
20260906065202 62 0 0.0 0.0 0.00 0.00 0.00 90 1014.9
20260906064703 62 0 0.0 0.0 0.00 0.00 0.00 90 1014.8
20260906064202 62 0 0.0 0.0 0.00 0.00 0.00 90 1014.9
20260906063702 62 0 0.0 0.0 0.00 0.00 0.00 90 1014.9
20260906063202 62 0 0.0 0.0 0.00 0.00 0.00 91 1015.0
20260906062703 62 0 0.0 0.0 0.00 0.00 0.00 91 1014.9
20260906062202 62 0 0.0 0.0 0.00 0.00 0.00 91 1014.9
20260906061703 62 0 0.0 0.0 0.00 0.00 0.00 91 1014.8
20260906061202 62 0 0.0 0.0 0.00 0.00 0.00 90 1015.0
20260906060703 62 0 0.0 0.0 0.00 0.00 0.00 90 1015.0
20260906060202 62 0 0.0 0.0 0.00 0.00 0.00 90 1014.9
20260906055703 62 0 0.0 0.0 0.00 0.00 0.00 90 1014.9
20260906055202 63 0 0.0 0.0 0.00 0.00 0.00 91 1015.0
20260906054706 63 0 0.0 0.0 0.00 0.00 0.00 91 1014.9
20260906054203 63 0 0.0 0.0 0.00 0.00 0.00 90 1014.9
20260906053703 63 0 0.0 0.0 0.00 0.00 0.00 90 1014.9
20260906053203 63 0 0.0 0.0 0.00 0.00 0.00 90 1014.9
20260906052703 63 0 0.0 0.0 0.00 0.00 0.00 90 1014.9
20260906052203 63 0 0.0 0.0 0.00 0.00 0.00 90 1014.9
20260906051702 63 0 0.0 0.0 0.00 0.00 0.00 90 1014.9
20260906051203 63 0 0.0 0.0 0.00 0.00 0.00 90 1014.9
20260906050702 63 0 0.0 0.0 0.00 0.00 0.00 90 1014.9
20260906050203 63 0 0.0 0.0 0.00 0.00 0.00 90 1014.9
20260906045702 63 0 0.0 0.0 0.00 0.00 0.00 90 1014.9
20260906045157 63 0 0.0 0.0 0.00 0.00 0.00 90 1014.9
20260906044652 63 0 0.0 0.0 0.00 0.00 0.00 90 1014.9
20260906044145 63 0 0.0 0.0 0.00 0.00 0.00 90 1014.8
20260906043639 63 0 0.0 0.0 0.00 0.00 0.00 90 1014.8
20260906043136 63 0 0.0 0.0 0.00 0.00 0.00 90 1014.7
20260906042635 63 0 0.0 0.0 0.00 0.00 0.00 90 1014.7
20260906042134 63 0 0.0 0.0 0.00 0.00 0.00 90 1014.7
20260906041631 63 0 0.0 0.0 0.00 0.00 0.00 90 1014.7
20260906041131 63 0 0.0 0.0 0.00 0.00 0.00 90 1014.6
20260906040631 63 0 0.0 0.0 0.00 0.00 0.00 90 1014.6
20260906040144 63 0 0.0 0.0 0.00 0.00 0.00 90 1014.6
20260906035630 63 0 0.0 0.0 0.00 0.00 0.00 90 1014.6
20260906035130 63 0 0.0 0.0 0.00 0.00 0.00 90 1014.6
20260906034631 63 0 0.0 0.0 0.00 0.00 0.00 90 1014.7
20260906034131 63 0 0.0 0.0 0.00 0.00 0.00 90 1014.6
20260906033631 63 0 0.0 0.0 0.00 0.00 0.00 90 1014.5
20260906033131 64 0 0.0 0.0 0.00 0.00 0.00 90 1014.5
20260906032630 64 0 0.0 0.0 0.00 0.00 0.00 90 1014.5
20260906032131 64 0 0.0 0.0 0.00 0.00 0.00 90 1014.5
20260906031631 64 0 0.0 0.0 0.00 0.00 0.00 90 1014.5
20260906031130 64 0 0.0 0.0 0.00 0.00 0.00 90 1014.5
20260906030631 64 0 0.0 0.0 0.00 0.00 0.00 90 1014.5
20260906030130 64 0 0.0 0.0 0.00 0.00 0.00 90 1014.4
20260906025630 64 0 0.0 0.0 0.00 0.00 0.00 90 1014.4
20260906025130 64 0 0.0 0.0 0.00 0.00 0.00 90 1014.4
20260906024630 64 0 0.0 0.0 0.00 0.00 0.00 90 1014.4
20260906024130 64 0 0.0 0.0 0.00 0.00 0.00 90 1014.4
20260906023630 64 0 0.0 0.0 0.00 0.00 0.00 90 1014.4
20260906023129 64 0 0.0 0.0 0.00 0.00 0.00 89 1014.4
20260906022630 65 0 0.0 0.0 0.00 0.00 0.00 89 1014.3
20260906022131 65 0 0.0 0.0 0.00 0.00 0.00 89 1014.3
20260906021631 65 0 0.0 0.0 0.00 0.00 0.00 89 1014.2
20260906021130 65 0 0.0 0.0 0.00 0.00 0.00 89 1014.2
20260906020631 65 0 0.0 0.0 0.00 0.00 0.00 89 1014.2
20260906020130 65 0 0.0 0.0 0.00 0.00 0.00 88 1014.2
20260906015630 66 0 0.0 0.0 0.00 0.00 0.00 88 1014.2
20260906015130 66 0 0.0 0.0 0.00 0.00 0.00 88 1014.2
20260906014630 66 0 0.0 0.0 0.00 0.00 0.00 88 1014.2
20260906014130 66 0 0.0 0.0 0.00 0.00 0.00 87 1014.1
20260906013630 67 0 0.0 0.0 0.00 0.00 0.00 87 1014.1
20260906013131 67 0 0.0 0.0 0.00 0.00 0.00 87 1014.0
20260906012630 67 0 0.0 0.0 0.00 0.00 0.00 86 1014.0
20260906012131 67 0 0.0 0.0 0.00 0.00 0.00 86 1013.9
20260906011631 67 0 0.0 0.0 0.00 0.00 0.00 86 1014.0
20260906011130 68 0 0.0 0.0 0.00 0.00 0.00 85 1014.0
20260906010630 68 0 0.0 0.0 0.00 0.00 0.00 85 1014.1
20260906010131 68 0 0.0 0.0 0.00 0.00 0.00 84 1014.2
20260906005632 68 0 0.0 0.0 0.00 0.00 0.00 84 1014.1
20260906005131 68 0 0.0 0.0 0.00 0.00 0.00 84 1014.1
20260906004631 68 0 0.0 0.0 0.00 0.00 0.00 84 1014.0
20260906004129 68 0 0.0 0.0 0.00 0.00 0.00 83 1014.0
20260906003624 68 0 0.0 0.0 0.00 0.00 0.00 83 1013.9
20260906003118 69 0 0.0 0.0 0.00 0.00 0.00 82 1013.9
20260906002613 69 0 0.0 0.0 0.00 0.00 0.00 82 1013.8
20260906002108 69 0 0.0 0.0 0.00 0.00 0.00 82 1013.9
20260906001609 69 0 0.0 0.0 0.00 0.00 0.00 82 1013.9
20260906001106 69 0 0.0 0.0 0.00 0.00 0.00 82 1013.9
20260906000606 69 0 0.0 0.0 0.00 0.00 0.00 81 1014.0
20260906000106 69 0 0.0 0.0 0.00 0.00 0.00 81 1013.9
20260905235607 69 0 0.0 0.0 0.00 0.00 0.00 81 1014.0
20260905235106 69 0 0.0 0.0 0.00 0.00 0.00 80 1013.9
20260905234605 69 0 0.0 0.0 0.00 0.00 0.00 80 1014.0
20260905234104 69 0 0.0 0.0 0.00 0.00 0.00 79 1014.0
20260905233605 70 0 0.0 0.0 0.00 0.00 0.00 79 1014.0
20260905233104 70 0 0.0 0.0 0.00 0.00 0.00 79 1013.9
20260905232603 70 0 0.0 0.0 0.00 0.00 0.00 78 1013.9
20260905232103 70 0 0.0 0.0 0.00 0.00 0.00 78 1013.9
20260905231602 70 0 0.0 0.0 0.00 0.00 0.00 77 1014.0
20260905231102 70 0 0.0 0.0 0.00 0.00 0.00 76 1014.0
20260905230602 71 0 0.0 0.0 0.00 0.00 0.00 75 1014.0
20260905230103 71 300 0.0 0.0 0.00 0.00 0.00 75 1014.0
20260905225558 71 0 0.0 0.0 0.00 0.00 0.00 75 1014.0
20260905225051 71 37 0.0 0.0 0.00 0.00 0.00 74 1014.1
20260905224555 71 40 0.0 0.0 0.00 0.00 0.00 74 1014.1
20260905224052 72 0 0.0 0.0 0.00 0.00 0.00 74 1014.0
20260905223550 72 302 0.0 0.0 0.00 0.00 0.00 72 1014.1
20260905223048 72 302 0.0 0.0 0.00 0.00 0.00 72 1014.1
20260905222547 72 302 0.0 0.0 0.00 0.00 0.00 72 1014.1
20260905222047 72 302 0.0 0.0 0.00 0.00 0.00 71 1013.9
20260905221545 72 302 0.0 0.0 0.00 0.00 0.00 71 1013.9
20260905221044 72 302 0.0 0.0 0.00 0.00 0.00 70 1013.9
20260905220542 72 302 0.0 0.0 0.00 0.00 0.00 70 1013.8
20260905220039 73 302 0.0 0.0 0.00 0.00 0.00 69 1013.7
20260905215537 73 302 0.0 0.0 0.00 0.00 0.00 69 1013.7
20260905215036 73 302 0.0 0.0 0.00 0.00 0.00 69 1013.8
20260905214533 73 302 0.0 0.0 0.00 0.00 0.00 69 1013.7
20260905214032 73 302 0.0 0.0 0.00 0.00 0.00 68 1013.6
20260905213531 74 302 0.0 0.0 0.00 0.00 0.00 68 1013.6
20260905213031 74 302 0.0 0.0 0.00 0.00 0.00 68 1013.7
20260905212530 74 302 0.0 0.0 0.00 0.00 0.00 67 1013.6
20260905212031 74 302 0.0 1.0 0.00 0.00 0.00 67 1013.6